RH
36 38 41 41 42 41 41 40 40 41 43 43 42 40 39 38 38 37 37 38 39 40 38 37 38 37 34 29 28 28 30 32 34 35 34 32 29 26 25 25 26 27 30 31 34 35 35 36 36 35 31 27 25 23 23 23 22 22 21 22 23 24 25
36 37 41 42 42 41 40 39 40 40 41 42 43 42 40 39 39 39 37 38 39 39 39 39 39 36 32 29 28 29 31 34 36 36 36 35 31 26 24 25 25 25 28 30 32 35 36 37 37 37 36 31 25 24 24 24 23 21 21 22 22 23 25
34 36 39 42 41 42 41 41 42 42 42 42 43 44 43 41 41 41 40 39 41 41 40 39 37 34 31 30 30 30 31 34 35 35 35 35 33 29 26 27 27 26 27 29 32 34 36 37 38 39 40 35 28 26 26 24 23 22 22 22 22 23 24
33 34 37 40 41 41 42 42 42 42 42 42 41 42 43 43 43 45 45 46 46 44 42 39 36 33 31 31 32 32 31 31 33 34 34 35 36 34 31 30 30 29 28 30 33 34 35 36 38 42 44 41 35 30 26 23 22 22 22 22 22 23 24
31 33 36 39 39 41 41 41 42 42 42 41 40 39 40 41 43 45 47 48 47 45 42 39 37 34 32 32 33 34 33 32 33 35 36 37 38 37 35 33 33 33 33 35 36 36 36 37 40 43 47 48 41 30 23 22 23 23 22 22 23 23 25
32 33 36 37 39 40 40 40 41 42 41 40 39 38 39 41 43 44 45 45 44 43 42 40 39 36 35 34 35 36 36 37 37 37 38 40 42 41 39 36 36 36 37 38 39 39 38 40 43 46 52 55 45 31 26 26 26 27 26 26 27 27 27
32 34 36 38 39 38 38 38 41 42 41 39 39 40 41 42 42 43 43 44 44 44 44 42 40 39 38 37 37 37 38 40 41 41 41 43 45 47 47 44 41 40 41 41 41 41 42 44 47 52 58 58 48 38 35 33 30 30 30 30 31 31 31
31 34 35 37 37 35 35 37 40 41 40 40 41 41 40 39 39 39 40 42 43 43 42 41 39 39 39 38 37 38 40 41 43 43 44 47 51 52 52 51 48 47 48 46 43 44 45 46 49 56 61 58 50 43 40 35 33 33 33 33 34 34 34
31 33 34 35 35 33 33 35 37 39 39 40 40 39 37 36 36 37 38 40 40 40 39 39 38 37 37 38 41 43 45 44 45 45 45 47 51 53 54 54 54 53 53 51 49 49 49 48 52 58 60 57 51 45 40 36 35 35 35 36 36 36 37
30 32 33 34 33 32 32 33 35 37 38 39 40 38 37 37 37 37 37 38 39 38 37 38 38 38 38 41 46 49 49 49 50 49 44 43 49 56 59 57 54 53 53 53 55 56 53 51 53 57 58 56 52 45 40 37 36 37 38 38 38 39 41
30 31 32 32 33 32 31 31 32 33 36 38 39 39 38 38 39 39 39 40 39 39 39 39 42 42 43 48 53 54 54 53 52 49 46 46 53 61 64 59 54 52 50 51 56 60 57 53 53 57 59 57 54 46 40 37 37 38 39 40 40 41 42
30 31 31 32 32 31 30 29 30 31 33 35 36 36 36 37 39 40 42 42 42 42 43 44 46 45 46 53 58 56 55 55 56 56 55 55 59 65 66 61 55 53 51 51 55 59 60 56 56 60 61 58 54 47 40 37 38 40 42 44 43 41 43
28 30 30 30 30 30 30 30 28 29 31 32 32 32 34 35 38 39 41 43 45 46 47 48 46 45 47 52 56 57 60 65 67 64 61 61 64 69 70 64 57 55 54 54 53 55 60 62 61 62 63 60 55 48 41 39 41 44 45 45 44 44 47
27 30 30 30 30 30 31 30 29 28 28 30 30 32 35 36 38 40 40 42 46 48 50 48 46 46 48 51 56 62 67 70 67 59 58 62 64 66 67 64 60 58 57 56 54 53 57 62 63 64 66 62 53 45 42 43 43 44 43 43 45 47 48
28 29 29 30 30 30 31 31 30 29 28 29 31 33 36 36 37 39 40 43 46 49 49 48 48 50 50 52 58 62 61 59 56 54 57 59 60 64 66 65 65 63 59 58 56 55 58 63 64 65 64 58 48 41 41 44 45 44 43 43 45 47 48
28 28 29 30 31 31 32 32 31 31 31 31 32 32 34 36 38 40 41 42 45 46 46 47 49 51 53 55 58 57 55 55 55 57 60 58 60 69 71 67 68 67 62 59 59 61 66 67 65 63 60 53 44 40 43 46 47 46 45 46 46 46 48
27 28 29 31 32 34 34 33 33 33 34 33 32 32 34 37 39 41 42 43 45 45 45 47 50 53 55 57 57 55 55 56 56 57 62 63 65 71 72 69 69 68 63 62 64 67 71 70 65 60 56 51 46 44 47 49 48 47 48 49 48 46 49
27 29 31 32 33 34 34 33 33 34 34 34 34 35 36 39 41 42 43 44 46 47 49 52 54 56 57 57 58 57 58 61 62 61 63 67 69 70 70 68 69 68 65 66 69 71 72 69 63 59 57 54 51 48 50 51 49 48 50 50 49 49 52
29 30 32 32 33 33 33 34 35 35 36 36 37 38 39 40 42 42 43 45 46 48 51 53 54 55 57 57 59 59 60 64 67 64 65 71 74 74 70 65 66 67 66 69 73 72 69 64 58 57 56 54 51 50 52 52 50 49 51 52 52 54 55
29 30 31 33 33 34 34 36 37 38 38 39 39 40 40 40 39 39 40 41 42 44 46 49 51 52 53 54 57 60 62 64 63 62 67 71 73 76 75 68 65 66 65 69 74 72 64 57 52 52 53 53 52 51 51 51 49 50 52 54 57 59 58
30 30 31 32 34 36 37 38 39 39 39 39 38 38 38 37 36 37 38 38 39 40 41 43 45 47 48 50 53 58 60 61 62 65 70 72 71 73 76 73 69 68 70 72 73 67 58 50 48 50 53 53 52 50 50 50 50 50 53 58 63 64 59
30 30 32 34 36 38 39 39 39 39 38 38 38 37 37 36 36 37 38 39 40 41 42 44 44 46 49 50 53 57 57 58 63 66 68 73 72 68 71 74 73 72 72 71 66 58 51 48 49 52 54 53 51 50 52 54 53 53 56 61 63 61 56
31 32 34 37 38 38 39 38 38 38 39 39 39 38 36 36 36 37 38 39 41 42 43 44 46 48 50 52 55 56 54 58 66 66 63 66 66 63 68 74 71 69 69 67 61 55 50 50 51 52 53 52 50 52 57 57 56 58 63 66 64 58 54
34 35 37 38 39 39 39 39 39 40 40 39 39 38 38 38 37 36 36 37 39 42 42 43 45 47 49 51 53 52 51 56 65 66 61 59 59 63 69 70 65 63 64 63 59 54 51 51 50 50 52 52 53 57 61 60 59 63 68 71 68 62 55
35 37 39 40 41 41 41 41 42 41 41 40 40 40 40 39 38 37 37 37 38 42 43 44 45 46 47 49 49 49 51 56 60 62 61 57 55 60 65 62 57 57 57 55 52 49 48 49 49 51 53 55 58 63 64 64 67 70 73 74 73 66 57
37 39 41 42 42 43 43 44 44 43 42 41 42 42 42 41 40 40 40 40 42 44 44 45 45 45 47 48 47 48 53 56 57 57 57 55 54 57 61 61 56 53 52 50 47 47 49 51 52 54 56 59 63 64 64 67 71 71 71 73 71 65 57
40 41 42 43 43 43 44 46 47 47 46 45 45 45 44 43 43 43 44 45 46 46 45 45 45 45 47 49 48 49 53 56 57 57 55 55 55 56 60 63 59 56 55 54 53 55 57 57 58 61 64 66 66 63 64 68 69 68 67 66 64 60 55
43 43 43 44 44 44 45 47 50 51 50 48 47 46 45 46 46 47 48 49 49 48 47 46 45 46 47 48 49 52 54 54 55 56 56 57 58 59 61 62 59 57 58 59 59 62 64 65 68 71 71 69 66 63 63 65 64 63 62 61 60 57 50
45 44 45 47 48 48 47 48 50 51 51 50 49 48 47 47 47 49 51 51 50 49 49 47 45 45 46 48 50 54 55 54 52 53 56 57 58 59 60 59 56 54 58 62 65 67 70 72 74 74 70 66 64 64 63 62 59 58 59 59 57 52 44
45 45 46 47 48 47 48 50 52 53 53 52 51 50 49 48 49 50 51 52 52 51 50 47 45 44 46 49 52 54 54 53 51 53 56 56 55 56 60 63 62 60 62 67 69 68 69 71 70 67 64 62 62 61 59 57 57 57 57 55 51 46 43
45 45 45 46 46 46 48 52 53 54 54 54 54 53 53 51 50 50 51 52 53 53 51 47 45 46 48 51 53 54 53 50 50 54 58 56 54 58 65 70 72 70 70 72 71 67 65 66 65 64 63 63 62 59 56 56 56 54 52 50 47 45 44
47 47 46 48 50 52 54 55 56 56 55 55 55 55 55 54 51 50 51 52 52 51 49 46 45 46 47 49 51 52 52 51 53 57 58 54 54 63 71 74 74 75 76 76 73 68 66 65 66 66 65 64 61 58 57 57 54 50 49 48 47 46 44
49 49 50 50 51 53 57 59 59 59 58 55 56 57 56 53 51 50 49 49 48 48 47 46 46 46 46 47 49 50 52 56 59 60 57 54 57 66 71 71 71 74 78 77 73 69 67 67 68 67 65 63 60 57 55 53 50 49 49 48 47 45 44
50 52 54 53 52 53 57 60 61 60 57 54 54 55 53 50 49 49 47 46 47 48 46 44 45 47 45 46 48 50 53 59 61 59 58 59 61 64 67 69 72 74 75 74 71 68 68 69 69 68 66 63 58 54 52 51 51 51 50 48 47 45 44
51 54 56 57 56 56 57 58 57 55 53 50 50 50 48 47 47 46 45 46 47 47 45 44 46 48 46 47 50 51 53 58 61 60 61 63 65 67 72 75 75 73 72 72 70 68 70 71 70 69 68 63 58 54 53 53 53 53 51 48 47 45 44
54 55 55 56 57 56 54 53 52 51 50 49 48 47 45 44 43 43 44 46 46 45 44 46 49 49 47 49 52 53 55 58 60 61 64 67 70 73 75 73 71 71 73 72 70 69 71 71 70 69 67 62 58 56 55 55 54 53 50 48 47 46 45
55 54 53 53 53 51 49 49 51 51 50 49 48 46 44 42 42 43 44 45 45 44 44 47 51 51 51 53 55 55 57 60 61 63 66 68 70 71 71 69 69 71 71 68 66 66 66 67 67 67 66 63 61 60 58 57 56 54 49 47 48 49 48
55 54 52 51 49 48 48 49 50 50 50 48 46 44 43 42 42 43 44 43 43 43 46 50 52 51 53 57 59 59 60 64 65 65 66 67 67 66 66 66 67 67 64 62 63 65 66 66 67 68 67 67 65 62 61 59 57 52 47 47 50 52 49